WESTFORD NEEDLES, 2381

Orbit data source: Space-Track

WESTFORD NEEDLES, 2381 is space debris in LEO originally from a launch on Thu, 09 May 1963 UTC launched from the Air Force Western Test Range (AFWTR). Debris objects in space refer to the collection of defunct objects orbiting the Earth. Examples of debris include non-operational satellites, rocket bodies, and fragments generated from explosions, collisions, or faulty payload assembly.

Loading next visibility...
Identifier
2381, 1963-014AB
Orbit
LEO
Country
Flag of USUS
Related business
Manufacturer
Unknown
Mission
Spacecraft
Bus & Motor
Unknown
Mass
Unknown
Launch date (UTC)
1963-05-09 (62 years ago)
Launch vehicle
Unknown
Launch site
Air Force Western Test Range (AFWTR)
Object type
Payload
Rocket body
Debris
Shape & HBR
Unknown shape, 0.3 m
Radar Cross Section
Medium (>0.1 m² and <1 m²)

Expand to show TLE details & history
Last TLE update: 2 days ago

TLE from 2 days ago
0 WESTFORD NEEDLES
1 02381U 63014AB  25304.92899785  .00000120  00000-0  51917-1 0  9996
2 02381  87.2858 119.7022 0241060 118.3376 244.2017  8.67468614371470
Epoch: 2025-10-31T22:17Z
TLE epoch observation values (Epoch: 2025-10-31T22:17:45.414Z)
Latitude
0.00003°
Longitude
104.79659°
Altitude
3,739.032 km
Speed
6.243 km/s
True Right ascension
07h 58m 48s
True Declination
0° 00' 00"
Sunlit
Object was in daylight at epoch
Visualization orbit readout
Latitude
Unknown
Longitude
Unknown
Altitude
Unknown
Speed
Unknown
Apparent Right ascension
Unknown
Apparent Declination
Unknown
Sunlit
N/A
Visualization observer readout
Local Sidereal Time
11:16:17
Azimuth
Unknown
Elevation
Unknown
Doppler factor
Unknown
Orbital elements
Apogee altitude
3,866.177 km
Perigee altitude
3,383.904 km
Semi-major axis
10,003.177 km
Eccentricity
0.02411
Inclination
87.2858°
RAAN
119.7022°
Arg. of periapsis
118.3376°
True anomaly
241.74763°
Mean anomaly
244.2017°
Eccentric anomaly
242.97138°
Mean motion
2.16938 °/min
Orbital period
165.95 mins
BSTAR
0.051917
Loading maneuver chart data...
Computing Atmospheric mass density...

Documentation

Showing up to 5 results
|